SCP
0 0 0 0 0 0 0 0 0 0 0 0 0 0 0 0 0 0 0 0 0 0 0 0 0 0 0 0 0 0 0 0 0 0 0 0 0 0 0 0 0 0 0
0 0 0 0 0 0 0 0 0 0 0 0 0 0 0 0 0 0 0 0 0 0 0 0 0 0 0 0 0 0 0 0 0 0 0 0 0 0 0 0 0 0 0
0 0 0 0 0 0 0 0 0 0 0 0 0 0 0 0 0 0 0 0 0 0 0 0 0 0 0 0 0 0 0 0 0 0 0 0 0 0 0 0 0 0 0
0 0 0 0 0 0 0 0 0 0 0 0 0 0 0 0 0 0 0 0 0 0 0 0 0 0 0 0 0 0 0 0 0 0 0 0 0 0 0 0 0 0 0
0 0 0 0 0 0 0 0 0 0 0 0 0 0 0 0 0 0 0 0 0 0 0 0 0 0 0 0 0 0 0 0 0 0 0 0 0 0 0 0 0 0 0
0 0 0 0 0 0 0 0 0 0 0 0 0 0 0 0 0 0 0 0 0 0 0 0 0 0 0 0 0 0 0 0 0 0 0 0 0 0 0 0 0 0 0
0 0 0 0 0 0 0 0 0 0 0 0 0 0 0 0 0 0 0 0 0 0 0 0 0 0 0 0 0 0 0 0 0 0 0 0 0 0 0 0 0 0 0
0 0 0 0 0 0 0 0 0 0 0 0 0 0 0 0 0 0 0 0 0 0 0 0 0 0 0 0 0 0 0 0 0 0 0 0 0 0 0 0 0 0 0
0 0 0 0 0 0 0 0 0 0 0 0 0 0 0 0 0 0 0 0 0 0 0 0 0 0 0 0 0 0 0 0 0 0 0 0 0 0 0 0 0 0 0
0 0 0 0 0 0 0 0 0 0 0 0 0 0 0 0 0 0 0 0 0 0 0 0 0 0 0 0 0 0 0 0 0 0 0 0 0 0 0 0 0 0 0
0 0 0 0 0 0 0 0 0 0 0 0 0 0 0 0 0 0 0 0 0 0 0 0 0 0 0 0 0 0 0 0 0 0 0 0 0 0 0 0 0 0 0
0 0 0 0 0 0 0 0 0 0 0 0 0 0 0 0 0 0 0 0 0 0 0 0 0 0 0 0 0 0 0 0 0 0 0 0 0 0 0 0 0 0 0
0 0 0 0 0 0 0 0 0 0 0 0 0 0 0 0 0 0 0 0 0 0 0 0 0 0 0 0 0 0 0 0 0 0 0 0 0 0 0 0 0 0 0
0 0 0 0 0 0 0 0 0 0 0 0 0 0 0 0 0 0 0 0 0 0 0 0 0 0 0 0 0 0 0 0 0 0 0 0 0 0 0 0 0 0 0
0 0 0 0 0 0 0 0 0 0 0 0 0 0 0 0 0 0 0 0 0 0 0 0 0 0 0 0 0 0 0 0 0 0 0 0 0 0 0 0 0 0 0
0 0 0 0 0 0 0 0 0 0 0 0 0 0 0 0 0 0 0 0 0 0 0 0 0 0 0 0 0 0 0 0 0 0 0 0 0 0 0 0 0 0 0
0 0 0 0 0 0 0 0 0 0 0 0 0 0 0 0 0 0 0 0 0 0 0 0 0 0 0 0 0 0 0 0 0 0 0 0 0 0 0 0 0 0 0
0 0 0 0 0 0 0 0 0 0 0 0 0 0 0 0 0 0 0 0 0 0 0 0 0 0 0 0 0 0 0 0 0 0 0 0 0 0 0 0 0 0 0
0 0 0 0 0 0 0 0 0 0 0 0 0 0 0 0 0 0 0 0 0 0 0 0 0 0 0 0 0 0 0 0 0 0 0 0 0 0 0 0 0 0 0
0 0 0 0 0 0 0 0 0 0 0 0 0 0 0 0 0 0 0 0 0 0 0 0 0 0 0 0 0 0 0 0 0 0 0 0 0 0 0 0 0 0 0
0 0 0 0 0 0 0 0 0 0 0 0 0 0 0 0 0 0 0 0 0 0 0 0 0 0 0 0 0 0 0 0 0 0 0 0 0 0 0 0 0 0 0
0 0 0 0 0 0 0 0 0 0 0 0 0 0 0 0 0 0 0 0 0 0 0 0 0 0 0 0 0 0 0 0 0 0 0 0 0 0 0 0 0 0 0
0 0 0 0 0 0 0 0 0 0 0 0 0 0 0 0 0 0 0 0 0 0 0 0 0 0 0 0 0 0 0 0 0 0 0 0 0 0 0 0 0 0 0
0 0 0 0 0 0 0 0 0 0 0 0 0 0 0 0 0 0 0 0 0 0 0 0 0 0 0 0 0 0 0 0 0 0 0 0 0 0 0 0 0 0 0
0 0 0 0 0 0 0 0 0 0 0 0 0 0 0 0 0 0 0 0 0 0 0 0 0 0 0 0 0 0 0 0 0 0 0 0 0 0 0 0 0 0 0
0 0 0 0 0 0 0 0 0 0 0 0 0 0 0 0 0 0 0 0 0 0 0 0 0 0 0 0 0 0 0 0 0 0 0 0 0 0 0 0 0 0 0
Wind_Speed_500mb
23 29 37 41 48 52 58 66 73 79 82 73 69 76 83 87 86 86 90 84 92 79 81 84 82 74 69 63 57 52 50 42 27 27 27 22 23 21 25 26 30 32 34
29 39 41 44 49 52 55 60 66 73 78 70 64 68 69 85 84 88 85 95 81 84 88 84 78 74 68 63 59 56 51 36 26 24 23 28 20 25 26 30 32 36 39
35 44 47 48 55 55 55 59 65 71 73 71 68 70 69 75 78 89 93 85 87 91 89 84 80 78 73 67 61 57 46 30 28 25 26 26 25 26 29 32 35 41 44
57 56 56 53 55 63 64 63 65 68 70 71 73 72 72 78 78 83 88 82 91 91 83 76 80 80 76 70 66 54 35 29 29 28 27 28 29 29 32 34 40 44 48
68 63 63 63 68 74 71 69 68 68 65 66 72 72 74 82 79 83 81 89 89 89 78 78 78 75 69 67 62 41 30 30 30 25 31 34 31 30 34 39 46 50 55
69 69 68 71 72 72 68 70 71 72 66 65 72 74 77 79 83 81 82 84 88 87 79 79 74 72 69 62 42 30 28 25 30 29 39 35 33 34 37 42 46 54 62
61 58 61 66 71 73 72 71 73 72 67 66 70 74 76 76 80 79 79 81 84 81 78 79 80 78 73 64 40 29 25 32 40 37 41 41 38 36 41 47 48 53 59
55 49 48 51 57 63 69 71 71 69 68 67 70 71 70 75 75 75 74 75 78 79 75 75 82 78 77 63 35 18 26 40 39 46 46 45 39 40 47 50 51 54 60
56 54 52 49 50 53 57 61 65 66 66 67 67 70 68 73 71 73 72 74 78 73 70 77 83 75 73 51 35 36 38 46 44 52 58 52 44 43 46 52 53 53 59
46 49 52 52 54 53 49 49 53 57 59 58 60 66 68 68 70 71 72 71 75 74 69 73 73 75 71 59 55 53 45 45 49 47 46 44 42 47 47 49 50 46 48
48 48 48 46 44 42 40 41 41 44 46 49 53 57 61 58 59 60 63 69 68 73 72 76 75 76 69 63 64 60 56 45 42 43 44 45 47 47 46 45 42 41 42
47 44 41 37 34 32 32 31 32 33 33 38 42 45 48 49 49 50 55 50 53 69 77 74 72 71 65 67 59 60 50 48 44 45 48 49 47 46 46 43 43 46 46
41 37 33 29 25 24 22 22 22 24 27 30 35 36 35 37 34 31 35 40 50 65 62 62 63 64 66 63 59 55 50 45 46 49 49 45 44 44 44 46 47 46 47
31 29 23 18 15 14 12 13 14 12 19 22 26 27 27 29 32 37 40 39 50 53 52 59 59 62 63 63 60 56 51 50 51 50 46 45 47 47 48 48 48 47 44
13 11 7 4 5 8 11 11 10 9 9 6 9 12 15 18 25 32 43 46 49 52 54 55 51 58 68 70 66 61 51 49 49 50 49 48 49 50 49 49 47 45 43
8 8 8 13 12 12 9 10 13 18 20 17 18 13 9 7 10 22 32 43 45 45 48 50 58 66 69 65 59 54 53 50 48 49 50 49 49 48 47 47 46 45 45
15 17 16 16 18 16 16 14 19 22 25 21 14 11 10 8 12 17 26 33 40 43 50 54 58 61 59 55 54 53 54 53 51 50 48 47 46 44 43 44 44 45 43
11 14 16 13 12 12 12 10 10 10 11 8 5 7 9 10 9 10 15 24 35 41 49 49 49 51 54 55 54 53 54 52 46 45 45 43 41 41 43 43 44 43 41
12 11 10 10 7 6 9 10 8 8 8 7 7 9 12 13 17 20 23 32 36 41 47 48 52 54 53 52 48 46 45 43 43 43 41 42 42 44 44 44 44 43 41
17 10 3 4 10 11 10 11 12 10 10 8 7 5 4 4 7 12 18 25 31 34 38 43 43 39 36 37 37 38 40 40 40 41 43 43 43 44 44 45 44 41 39
9 5 12 13 12 13 13 12 10 10 9 7 6 6 7 6 6 8 12 16 19 20 24 27 29 31 32 34 35 36 38 40 44 44 44 45 45 47 45 45 42 39 37
11 8 11 13 14 13 13 12 10 9 7 6 7 8 9 10 12 14 17 22 25 27 29 30 32 33 33 35 37 40 43 43 44 45 45 46 47 46 44 42 40 39 37
9 13 13 14 13 12 10 9 9 7 5 6 9 11 13 16 20 23 26 29 31 34 36 36 36 37 38 40 42 42 43 43 43 44 45 46 46 45 42 42 39 40 39
9 9 8 9 8 7 5 4 2 2 4 8 12 15 18 20 24 28 30 32 35 37 38 41 42 41 41 42 43 43 44 43 43 44 45 46 46 44 44 43 41 41 39
8 7 5 4 3 3 3 4 6 9 12 15 18 21 23 25 28 32 35 37 40 42 42 42 43 44 45 45 45 45 45 47 47 45 45 46 47 46 44 43 43 42 41
8 6 5 5 6 8 9 11 14 16 19 22 25 28 31 33 37 40 42 44 46 48 50 50 49 49 50 51 51 50 47 46 47 48 49 48 48 46 46 44 43 43 42
Wind_Direction_500mb
266 268 264 266 263 263 261 261 260 261 262 257 251 239 236 237 235 235 239 240 233 235 241 240 238 231 227 226 220 214 207 206 212 211 224 232 239 256 273 285 294 301 311
296 280 275 271 269 264 265 263 264 261 261 259 250 241 240 236 237 239 239 234 236 244 242 241 234 226 223 220 215 203 201 208 218 224 226 232 236 262 276 286 298 302 305
297 289 278 278 274 271 269 265 263 263 261 254 247 238 239 238 237 238 238 238 244 244 241 238 228 222 214 210 203 201 201 211 224 226 229 231 247 263 277 286 294 300 305
287 284 276 273 279 276 270 265 262 263 260 252 246 243 241 241 241 241 239 243 242 241 238 233 227 223 215 209 202 201 204 217 223 235 232 241 248 261 272 285 291 297 304
287 284 276 275 278 275 270 267 265 264 260 252 245 244 242 241 240 244 241 242 242 239 232 227 222 215 211 208 202 200 215 222 235 240 246 243 252 267 281 289 296 303 306
284 280 277 274 271 272 269 267 266 266 262 252 244 243 241 243 241 242 243 243 240 238 230 221 213 206 199 198 198 213 225 247 258 256 241 248 261 273 284 292 298 306 308
281 281 278 274 272 270 270 267 265 264 264 258 248 244 243 244 245 244 243 243 240 235 226 216 206 199 198 200 201 219 246 278 289 242 244 256 269 278 284 292 298 300 305
283 284 281 276 272 270 268 266 264 262 261 257 249 247 249 248 246 243 242 243 238 232 222 220 210 210 202 204 207 241 277 291 257 242 250 259 267 277 282 288 293 299 302
286 285 284 279 275 272 268 266 264 261 259 256 250 244 248 249 247 245 242 239 234 225 219 217 210 214 209 196 222 250 274 281 243 242 254 265 267 277 285 288 294 300 303
294 290 285 281 278 275 270 264 262 261 260 257 252 246 247 246 244 243 240 234 226 216 210 214 210 213 204 217 232 248 274 282 261 259 265 267 271 275 276 280 289 293 297
301 296 290 285 279 272 265 258 255 252 253 251 249 248 248 250 245 240 235 231 224 215 205 207 209 210 218 229 238 251 272 283 263 259 260 260 265 269 274 278 285 295 294
303 298 291 284 278 274 267 259 252 249 246 247 246 244 246 245 245 239 241 250 234 217 202 208 208 214 224 233 246 259 277 277 260 259 262 264 267 271 280 289 296 296 301
301 295 288 283 277 267 257 253 250 246 241 238 241 241 239 241 242 235 237 229 217 207 203 210 213 222 230 237 254 263 277 265 259 259 261 265 272 278 281 287 290 295 295
298 291 281 277 269 251 235 225 219 220 239 239 238 238 233 228 222 208 206 211 206 201 204 214 219 228 232 247 252 264 271 253 254 259 262 263 265 269 276 280 283 287 291
277 268 259 218 194 198 166 160 170 167 176 216 228 247 249 227 218 202 195 202 202 203 208 218 225 224 235 250 257 267 262 251 251 254 258 258 262 269 273 276 280 284 290
201 198 174 133 134 132 133 141 127 114 110 115 107 108 101 129 182 192 198 203 208 212 218 222 226 236 248 256 260 263 260 255 257 257 256 258 261 264 268 273 277 282 289
167 147 156 154 139 142 134 140 134 123 127 127 125 131 147 174 176 191 199 207 214 217 228 236 243 252 257 259 262 262 257 259 262 259 260 261 260 262 266 270 275 280 285
180 160 162 169 175 174 171 161 156 135 139 155 159 190 165 167 175 185 201 206 218 224 241 247 250 252 258 260 259 259 258 259 260 261 261 262 263 267 269 271 274 276 281
159 138 133 136 129 164 178 172 164 168 150 168 187 208 211 203 209 207 208 221 224 221 235 244 248 254 257 258 260 260 262 263 262 260 262 264 269 269 270 270 272 275 277
135 144 107 244 203 186 177 176 180 153 147 154 148 153 144 169 211 222 227 235 239 241 246 251 259 263 264 262 261 260 259 260 262 265 267 268 268 267 268 270 271 272 273
117 187 186 180 177 170 178 180 174 167 168 154 159 197 213 227 245 248 254 255 254 251 252 256 259 261 263 264 264 265 267 268 268 268 269 269 268 269 269 268 268 268 270
155 185 186 177 175 176 179 174 177 187 184 186 222 241 265 265 264 262 261 264 269 271 272 272 273 274 274 274 273 273 273 273 271 271 269 268 268 268 268 268 270 272 273
196 186 175 168 166 167 174 175 182 195 215 236 255 262 263 269 270 270 271 271 274 276 278 279 278 278 275 273 272 271 270 270 269 267 268 271 271 270 269 269 267 267 270
170 163 160 154 151 154 163 180 218 253 287 299 293 290 284 280 278 276 275 276 276 276 276 277 276 274 273 272 270 268 268 267 268 270 270 270 270 269 268 268 267 268 266
129 123 114 104 94 71 24 347 334 324 314 298 294 294 293 292 290 287 287 285 283 282 282 281 279 278 276 273 270 270 271 272 273 271 270 269 269 268 266 265 266 267 267
87 82 63 42 22 3 342 332 327 320 312 308 305 302 301 300 299 297 295 293 290 290 289 287 284 281 278 276 276 275 273 271 270 269 268 266 266 265 266 266 264 264 264
Wind_Speed_850mb
23 29 37 41 48 52 58 66 73 79 82 73 69 76 83 87 86 86 90 84 92 79 81 84 82 74 69 63 57 52 50 42 27 27 27 22 23 21 25 26 30 32 34
29 39 41 44 49 52 55 60 66 73 78 70 64 68 69 85 84 88 85 95 81 84 88 84 78 74 68 63 59 56 51 36 26 24 23 28 20 25 26 30 32 36 39
35 44 47 48 55 55 55 59 65 71 73 71 68 70 69 75 78 89 93 85 87 91 89 84 80 78 73 67 61 57 46 30 28 25 26 26 25 26 29 32 35 41 44
57 56 56 53 55 63 64 63 65 68 70 71 73 72 72 78 78 83 88 82 91 91 83 76 80 80 76 70 66 54 35 29 29 28 27 28 29 29 32 34 40 44 48
68 63 63 63 68 74 71 69 68 68 65 66 72 72 74 82 79 83 81 89 89 89 78 78 78 75 69 67 62 41 30 30 30 25 31 34 31 30 34 39 46 50 55
69 69 68 71 72 72 68 70 71 72 66 65 72 74 77 79 83 81 82 84 88 87 79 79 74 72 69 62 42 30 28 25 30 29 39 35 33 34 37 42 46 54 62
61 58 61 66 71 73 72 71 73 72 67 66 70 74 76 76 80 79 79 81 84 81 78 79 80 78 73 64 40 29 25 32 40 37 41 41 38 36 41 47 48 53 59
55 49 48 51 57 63 69 71 71 69 68 67 70 71 70 75 75 75 74 75 78 79 75 75 82 78 77 63 35 18 26 40 39 46 46 45 39 40 47 50 51 54 60
56 54 52 49 50 53 57 61 65 66 66 67 67 70 68 73 71 73 72 74 78 73 70 77 83 75 73 51 35 36 38 46 44 52 58 52 44 43 46 52 53 53 59
46 49 52 52 54 53 49 49 53 57 59 58 60 66 68 68 70 71 72 71 75 74 69 73 73 75 71 59 55 53 45 45 49 47 46 44 42 47 47 49 50 46 48
48 48 48 46 44 42 40 41 41 44 46 49 53 57 61 58 59 60 63 69 68 73 72 76 75 76 69 63 64 60 56 45 42 43 44 45 47 47 46 45 42 41 42
47 44 41 37 34 32 32 31 32 33 33 38 42 45 48 49 49 50 55 50 53 69 77 74 72 71 65 67 59 60 50 48 44 45 48 49 47 46 46 43 43 46 46
41 37 33 29 25 24 22 22 22 24 27 30 35 36 35 37 34 31 35 40 50 65 62 62 63 64 66 63 59 55 50 45 46 49 49 45 44 44 44 46 47 46 47
31 29 23 18 15 14 12 13 14 12 19 22 26 27 27 29 32 37 40 39 50 53 52 59 59 62 63 63 60 56 51 50 51 50 46 45 47 47 48 48 48 47 44
13 11 7 4 5 8 11 11 10 9 9 6 9 12 15 18 25 32 43 46 49 52 54 55 51 58 68 70 66 61 51 49 49 50 49 48 49 50 49 49 47 45 43
8 8 8 13 12 12 9 10 13 18 20 17 18 13 9 7 10 22 32 43 45 45 48 50 58 66 69 65 59 54 53 50 48 49 50 49 49 48 47 47 46 45 45
15 17 16 16 18 16 16 14 19 22 25 21 14 11 10 8 12 17 26 33 40 43 50 54 58 61 59 55 54 53 54 53 51 50 48 47 46 44 43 44 44 45 43
11 14 16 13 12 12 12 10 10 10 11 8 5 7 9 10 9 10 15 24 35 41 49 49 49 51 54 55 54 53 54 52 46 45 45 43 41 41 43 43 44 43 41
12 11 10 10 7 6 9 10 8 8 8 7 7 9 12 13 17 20 23 32 36 41 47 48 52 54 53 52 48 46 45 43 43 43 41 42 42 44 44 44 44 43 41
17 10 3 4 10 11 10 11 12 10 10 8 7 5 4 4 7 12 18 25 31 34 38 43 43 39 36 37 37 38 40 40 40 41 43 43 43 44 44 45 44 41 39
9 5 12 13 12 13 13 12 10 10 9 7 6 6 7 6 6 8 12 16 19 20 24 27 29 31 32 34 35 36 38 40 44 44 44 45 45 47 45 45 42 39 37
11 8 11 13 14 13 13 12 10 9 7 6 7 8 9 10 12 14 17 22 25 27 29 30 32 33 33 35 37 40 43 43 44 45 45 46 47 46 44 42 40 39 37
9 13 13 14 13 12 10 9 9 7 5 6 9 11 13 16 20 23 26 29 31 34 36 36 36 37 38 40 42 42 43 43 43 44 45 46 46 45 42 42 39 40 39
9 9 8 9 8 7 5 4 2 2 4 8 12 15 18 20 24 28 30 32 35 37 38 41 42 41 41 42 43 43 44 43 43 44 45 46 46 44 44 43 41 41 39
8 7 5 4 3 3 3 4 6 9 12 15 18 21 23 25 28 32 35 37 40 42 42 42 43 44 45 45 45 45 45 47 47 45 45 46 47 46 44 43 43 42 41
8 6 5 5 6 8 9 11 14 16 19 22 25 28 31 33 37 40 42 44 46 48 50 50 49 49 50 51 51 50 47 46 47 48 49 48 48 46 46 44 43 43 42
Wind_Direction_850mb
266 268 264 266 263 263 261 261 260 261 262 257 251 239 236 237 235 235 239 240 233 235 241 240 238 231 227 226 220 214 207 206 212 211 224 232 239 256 273 285 294 301 311
296 280 275 271 269 264 265 263 264 261 261 259 250 241 240 236 237 239 239 234 236 244 242 241 234 226 223 220 215 203 201 208 218 224 226 232 236 262 276 286 298 302 305
297 289 278 278 274 271 269 265 263 263 261 254 247 238 239 238 237 238 238 238 244 244 241 238 228 222 214 210 203 201 201 211 224 226 229 231 247 263 277 286 294 300 305
287 284 276 273 279 276 270 265 262 263 260 252 246 243 241 241 241 241 239 243 242 241 238 233 227 223 215 209 202 201 204 217 223 235 232 241 248 261 272 285 291 297 304
287 284 276 275 278 275 270 267 265 264 260 252 245 244 242 241 240 244 241 242 242 239 232 227 222 215 211 208 202 200 215 222 235 240 246 243 252 267 281 289 296 303 306
284 280 277 274 271 272 269 267 266 266 262 252 244 243 241 243 241 242 243 243 240 238 230 221 213 206 199 198 198 213 225 247 258 256 241 248 261 273 284 292 298 306 308
281 281 278 274 272 270 270 267 265 264 264 258 248 244 243 244 245 244 243 243 240 235 226 216 206 199 198 200 201 219 246 278 289 242 244 256 269 278 284 292 298 300 305
283 284 281 276 272 270 268 266 264 262 261 257 249 247 249 248 246 243 242 243 238 232 222 220 210 210 202 204 207 241 277 291 257 242 250 259 267 277 282 288 293 299 302
286 285 284 279 275 272 268 266 264 261 259 256 250 244 248 249 247 245 242 239 234 225 219 217 210 214 209 196 222 250 274 281 243 242 254 265 267 277 285 288 294 300 303
294 290 285 281 278 275 270 264 262 261 260 257 252 246 247 246 244 243 240 234 226 216 210 214 210 213 204 217 232 248 274 282 261 259 265 267 271 275 276 280 289 293 297
301 296 290 285 279 272 265 258 255 252 253 251 249 248 248 250 245 240 235 231 224 215 205 207 209 210 218 229 238 251 272 283 263 259 260 260 265 269 274 278 285 295 294
303 298 291 284 278 274 267 259 252 249 246 247 246 244 246 245 245 239 241 250 234 217 202 208 208 214 224 233 246 259 277 277 260 259 262 264 267 271 280 289 296 296 301
301 295 288 283 277 267 257 253 250 246 241 238 241 241 239 241 242 235 237 229 217 207 203 210 213 222 230 237 254 263 277 265 259 259 261 265 272 278 281 287 290 295 295
298 291 281 277 269 251 235 225 219 220 239 239 238 238 233 228 222 208 206 211 206 201 204 214 219 228 232 247 252 264 271 253 254 259 262 263 265 269 276 280 283 287 291
277 268 259 218 194 198 166 160 170 167 176 216 228 247 249 227 218 202 195 202 202 203 208 218 225 224 235 250 257 267 262 251 251 254 258 258 262 269 273 276 280 284 290
201 198 174 133 134 132 133 141 127 114 110 115 107 108 101 129 182 192 198 203 208 212 218 222 226 236 248 256 260 263 260 255 257 257 256 258 261 264 268 273 277 282 289
167 147 156 154 139 142 134 140 134 123 127 127 125 131 147 174 176 191 199 207 214 217 228 236 243 252 257 259 262 262 257 259 262 259 260 261 260 262 266 270 275 280 285
180 160 162 169 175 174 171 161 156 135 139 155 159 190 165 167 175 185 201 206 218 224 241 247 250 252 258 260 259 259 258 259 260 261 261 262 263 267 269 271 274 276 281
159 138 133 136 129 164 178 172 164 168 150 168 187 208 211 203 209 207 208 221 224 221 235 244 248 254 257 258 260 260 262 263 262 260 262 264 269 269 270 270 272 275 277
135 144 107 244 203 186 177 176 180 153 147 154 148 153 144 169 211 222 227 235 239 241 246 251 259 263 264 262 261 260 259 260 262 265 267 268 268 267 268 270 271 272 273
117 187 186 180 177 170 178 180 174 167 168 154 159 197 213 227 245 248 254 255 254 251 252 256 259 261 263 264 264 265 267 268 268 268 269 269 268 269 269 268 268 268 270
155 185 186 177 175 176 179 174 177 187 184 186 222 241 265 265 264 262 261 264 269 271 272 272 273 274 274 274 273 273 273 273 271 271 269 268 268 268 268 268 270 272 273
196 186 175 168 166 167 174 175 182 195 215 236 255 262 263 269 270 270 271 271 274 276 278 279 278 278 275 273 272 271 270 270 269 267 268 271 271 270 269 269 267 267 270
170 163 160 154 151 154 163 180 218 253 287 299 293 290 284 280 278 276 275 276 276 276 276 277 276 274 273 272 270 268 268 267 268 270 270 270 270 269 268 268 267 268 266
129 123 114 104 94 71 24 347 334 324 314 298 294 294 293 292 290 287 287 285 283 282 282 281 279 278 276 273 270 270 271 272 273 271 270 269 269 268 266 265 266 267 267
87 82 63 42 22 3 342 332 327 320 312 308 305 302 301 300 299 297 295 293 290 290 289 287 284 281 278 276 276 275 273 271 270 269 268 266 266 265 266 266 264 264 264